Simultaneous Nadir Overpasses (SNOs) Predictions

Prediction of SNOs between GOES-17 and TERRA Satellite Orbit:

Table of predicted SNOs for the next 14.0 days since TLE Epoch: 4/13/2024
Index Date Time (GOES-17) GOES-17 Lat,Lon TERRA Lat,Lon Distance(km) Time Diff (sec)
1 04/14/2024 04:34:55 0.00,-104.69 0.70,-101.46 367.30 80
2 04/14/2024 16:54:53 0.00,-104.68 0.37,-106.31 185.73 80
3 04/16/2024 16:40:27 0.00,-104.69 -0.52,-102.19 283.63 80
4 04/17/2024 05:00:35 -0.00,-104.70 -0.50,-107.09 271.92 80
5 04/19/2024 04:40:48 -0.00,-104.70 0.35,-102.96 197.88 80
6 04/19/2024 17:00:48 0.00,-104.70 0.64,-107.83 355.03 80
7 04/21/2024 16:46:20 0.01,-104.71 -0.18,-103.69 115.45 80
8 04/22/2024 05:06:29 -0.01,-104.72 -0.79,-108.60 439.75 80
9 04/24/2024 04:46:41 -0.01,-104.73 0.05,-104.46 30.65 80
10 04/26/2024 16:49:32 0.00,-104.73 0.12,-105.19 52.42 80
